Home > Weather > Coffs Harbour > Past weeks

Flag for Australia Past Weather in Coffs Harbour, New South Wales, Australia — Yesterday and Last 2 Weeks

Now
42 °F

Overcast.


Feels Like: 40 °F
Forecast: 52 / 60 °F
Wind: 3 mph from North

Location: Tamworth Airport AWS

Current Time: Jun 27, 2016 at 6:53:54 AM

Latest Report: Jun 27, 2016 at 6:00 AM


Visibility: 6 mi

Pressure: 30.01 "Hg

Humidity: 90%

Dew Point: 39 °F

Location of Coffs HarbourLocation

Past Weather in Coffs Harbour — Graph

°F

Coffs Harbour Temperature Yesterday

Maximum temperature yesterday: 49 °F (at 3:00 PM)
Minimum temperature yesterday: 29 °F (at 3:00 AM)
Average temperature yesterday: 39 °F

High & Low Weather Summary for the Past Weeks

 TemperatureHumidityPressure
High67 °F (Jun 14, 1:00 PM)91% (Jun 18, 3:00 PM)30.65 "Hg (Jun 18, 3:00 PM)
Low29 °F (Jun 26, 3:00 AM)34% (Jun 14, 2:00 PM)29.65 "Hg (Jun 20, 4:00 AM)
Average51 °F76%30.12 "Hg
* Reported Jun 12 5:00 AM — Jun 27 5:00 AM, Coffs Harbour, Weather by CustomWeather, © 2016

Note: Actual official high and low records may vary slightly from our data, if they occured in-between our weather recording intervals... More about our weather records

Advertising

Coffs Harbour Weather History for the Previous 24 Hours

Scroll right to see more
 ConditionsComfort  
Time TempWeatherWind HumidityBarometerVisibility
5:00 AM
Mon, Jun 27
42 °FQuite cool.3 mph89%29.99 "HgN/A
4:00 AM42 °FQuite cool.6 mph89%29.99 "HgN/A
3:00 AM42 °FFog.7 mph87%30.01 "HgN/A
2:00 AM42 °FQuite cool.5 mph86%30.01 "HgN/A
1:00 AM42 °FQuite cool.No wind84%30.00 "HgN/A
12:00 AM42 °FOvercast.6 mph83%30.00 "HgN/A
11:00 PM
Sun, Jun 26
42 °FQuite cool.6 mph85%30.03 "HgN/A
10:00 PM42 °FQuite cool.No wind83%30.06 "HgN/A
9:00 PM42 °FOvercast.6 mph81%30.05 "HgN/A
8:00 PM42 °FQuite cool.3 mph78%30.05 "HgN/A
7:00 PM44 °FQuite cool.5 mph71%30.06 "HgN/A
6:00 PM46 °FOvercast.8 mph68%30.06 "HgN/A
5:00 PM46 °FCool.3 mph66%30.06 "HgN/A
4:00 PM49 °FCool.No wind54%30.03 "HgN/A
3:00 PM49 °FOvercast.3 mph53%30.04 "HgN/A
2:00 PM49 °FCool.5 mph53%30.06 "HgN/A
1:00 PM49 °FCool.1 mph57%30.07 "HgN/A
12:00 PM47 °FOvercast.3 mph61%30.11 "HgN/A
11:00 AM41 °FQuite cool.5 mph75%30.14 "HgN/A
10:00 AM38 °FChilly.No wind82%30.18 "HgN/A
9:00 AM36 °FOvercast.3 mph85%30.16 "HgN/A
8:00 AM34 °FChilly.1 mph88%30.16 "HgN/A
7:00 AM33 °FChilly.6 mph89%30.14 "HgN/A
6:00 AM33 °FOvercast.9 mph89%30.14 "HgN/A
Weather by CustomWeather, © 2016

See weather overviewHow to use our weather pages